Date,TemperatureHighF,TemperatureAvgF,TemperatureLowF,DewpointHighF,DewpointAvgF,DewpointLowF,HumidityHigh,HumidityAvg,HumidityLow,PressureMaxIn,PressureMinIn,WindSpeedMaxMPH,WindSpeedAvgMPH,GustSpeedMaxMPH,PrecipitationSumIn
2013-1-2,57,42,27,36,32,26,95,72,40,0.00,0.00,4,1,7,0.00
2013-1-3,59,36,22,36,29,21,95,80,38,0.00,0.00,3,0,5,0.00
2013-1-4,31,31,31,29,29,29,95,95,95,0.00,0.00,0,0,0,0.00
2013-1-8,63,48,41,49,44,40,96,87,60,0.00,0.00,3,1,6,0.00
2013-1-9,51,44,38,47,42,37,97,93,67,0.00,0.00,11,2,19,0.00
2013-1-23,50,49,47,48,47,46,97,94,85,0.00,0.00,5,2,9,0.00
2013-1-24,58,52,47,53,50,46,97,93,81,0.00,0.00,5,1,8,0.52
2013-1-25,62,53,46,54,51,45,98,91,72,0.00,0.00,3,1,8,0.00
2013-1-26,48,44,39,47,43,38,97,97,97,0.00,0.00,2,0,3,0.00
2013-2-1,71,56,39,46,43,37,94,65,40,0.00,0.00,4,2,8,0.00
2013-2-2,62,45,33,49,40,32,97,85,59,0.00,0.00,5,1,9,0.00
2013-2-3,64,47,36,48,42,35,97,85,54,0.00,0.00,5,1,9,0.00
2013-2-4,38,37,35,37,36,34,97,97,96,0.00,0.00,2,0,5,0.00
2013-2-7,53,43,34,37,36,32,95,78,52,0.00,0.00,10,3,16,0.00
2013-2-8,59,43,29,38,34,28,97,73,33,0.00,0.00,13,5,21,0.10
2013-2-9,63,44,29,33,31,27,93,65,26,0.00,0.00,8,2,13,0.00
2013-2-10,66,43,25,38,32,23,94,72,34,0.00,0.00,5,2,9,0.00
2013-2-11,64,40,30,37,33,29,94,80,37,0.00,0.00,4,1,10,0.00
2013-2-12,65,45,28,42,36,26,95,75,37,0.00,0.00,6,1,10,0.00
2013-2-13,69,46,28,46,37,27,96,77,41,0.00,0.00,5,1,9,0.00
2013-2-14,74,49,32,48,40,30,96,74,34,0.00,0.00,8,2,13,0.00
2013-2-15,74,49,29,47,38,28,96,71,28,0.00,0.00,4,1,8,0.00
2013-2-16,58,41,36,45,38,35,96,89,60,0.00,0.00,4,2,8,0.00
2013-2-18,55,54,54,42,41,41,62,61,60,0.00,0.00,6,4,10,0.00
2013-2-19,50,43,36,41,35,31,95,73,53,0.00,0.00,15,7,29,0.00
2013-2-20,58,45,35,36,32,30,85,63,40,0.00,0.00,16,11,24,0.22
2013-2-26,73,55,37,38,33,30,85,48,21,0.00,0.00,10,3,15,0.00
2013-2-27,72,52,31,47,36,28,92,60,26,0.00,0.00,11,4,18,0.00
2013-2-28,73,58,45,52,48,44,95,72,48,0.00,0.00,8,3,13,0.00
2013-3-1,77,56,39,51,45,38,96,72,31,0.00,0.00,7,2,13,0.00
2013-3-6,56,48,36,44,40,35,96,75,52,0.00,0.00,11,4,21,0.00
2013-3-7,55,44,32,42,37,31,97,78,49,0.00,0.00,7,2,12,0.00
2013-3-8,63,49,39,41,38,35,85,66,41,0.00,0.00,15,8,24,0.00
2013-3-9,72,53,37,43,38,34,86,59,27,0.00,0.00,10,4,18,0.00
2013-3-10,73,55,39,45,39,32,91,59,29,0.00,0.00,7,3,12,0.00
2013-3-11,41,39,36,39,37,35,95,93,91,0.00,0.00,1,0,3,0.00
2013-3-13,80,62,38,54,47,37,96,64,26,0.00,0.00,4,1,8,0.00
2013-3-14,75,56,43,53,45,38,97,72,29,0.00,0.00,10,2,16,0.00
2013-3-15,78,56,42,49,44,39,92,68,33,0.00,0.00,13,4,22,0.00
2013-3-16,75,58,40,46,42,38,94,60,27,0.00,0.00,15,6,26,0.00
2013-3-17,73,56,46,46,39,34,79,56,25,0.00,0.00,15,7,27,0.00
2013-3-18,68,53,37,47,41,35,93,68,41,0.00,0.00,5,2,9,0.00
2013-3-19,60,50,40,47,43,38,94,77,50,0.00,0.00,6,2,12,0.00
2013-3-20,60,52,46,53,49,43,96,87,74,0.00,0.00,7,3,13,0.10
2013-3-21,66,52,38,43,40,35,93,67,39,0.00,0.00,12,7,19,0.33
2013-3-22,67,52,38,39,35,30,80,54,28,0.00,0.00,10,6,18,0.00
2013-3-23,71,52,35,44,38,33,93,63,28,0.00,0.00,8,2,14,0.00
2013-3-24,73,53,35,46,41,33,95,71,35,0.00,0.00,7,2,11,0.00
2013-3-25,61,48,36,47,43,36,97,83,56,0.00,0.00,6,2,12,0.00
2013-3-26,68,52,38,50,44,37,96,78,49,0.00,0.00,8,2,14,0.00
2013-3-27,62,52,42,52,47,40,95,82,66,0.00,0.00,7,2,14,0.00
2013-3-28,62,54,46,54,50,45,97,86,68,0.00,0.00,5,1,10,0.00
2013-3-29,77,59,44,54,50,43,97,75,42,0.00,0.00,8,2,15,0.08
2013-3-30,66,57,51,53,51,48,95,80,59,0.00,0.00,8,2,13,0.00
2013-3-31,62,55,52,54,52,51,96,90,72,0.00,0.00,7,2,12,0.02
2013-4-1,67,56,49,54,51,47,97,82,61,0.00,0.00,8,2,14,0.40
2013-4-2,70,56,45,56,50,44,98,83,58,0.00,0.00,8,2,12,0.00
2013-4-3,74,57,48,56,50,48,97,82,46,0.00,0.00,8,3,15,0.00
2013-4-4,61,54,49,57,52,47,96,92,84,0.00,0.00,8,4,14,0.00
2013-4-5,65,57,52,54,51,48,97,83,60,0.00,0.00,7,2,12,0.31
2013-4-6,53,52,50,51,50,49,95,94,92,0.00,0.00,3,1,5,0.00
2013-4-10,85,75,60,52,50,47,66,44,27,0.00,0.00,17,11,26,0.00
2013-4-11,75,61,51,49,45,42,74,57,35,0.00,0.00,17,10,26,0.00
2013-4-12,78,60,42,54,45,40,93,61,39,0.00,0.00,8,4,14,0.00
2013-4-13,73,60,46,46,41,37,85,53,34,0.00,0.00,18,10,31,0.00
2013-4-14,71,56,47,44,37,26,82,50,22,0.00,0.00,22,13,36,0.00
2013-4-15,60,52,44,42,35,31,85,54,35,0.00,0.00,19,13,34,0.00
2013-4-16,69,54,42,38,33,28,66,47,22,0.00,0.00,15,10,25,0.00
2013-4-17,73,57,42,38,35,29,76,49,20,0.00,0.00,11,5,17,0.00
2013-4-18,79,60,46,45,40,36,85,53,24,0.00,0.00,8,4,16,0.00
2013-4-19,74,50,41,50,44,39,95,82,43,0.00,0.00,5,1,10,0.00
2013-4-23,54,54,54,49,49,49,86,86,86,0.00,0.00,0,0,1,0.00
2013-4-24,69,54,44,51,46,42,97,78,53,0.00,0.00,9,4,15,0.00
2013-4-25,70,54,45,52,46,43,92,76,52,0.00,0.00,7,3,12,0.00
2013-4-26,75,56,42,56,48,40,96,77,51,0.00,0.00,6,2,12,0.00
2013-4-27,81,59,44,56,49,43,96,74,37,0.00,0.00,6,2,11,0.00
2013-4-28,87,60,40,58,48,39,96,70,34,0.00,0.00,7,2,12,0.00
2013-4-29,89,72,58,54,48,46,63,45,29,0.00,0.00,16,7,24,0.00
2013-4-30,85,68,53,46,42,38,66,42,21,0.00,0.00,14,7,25,0.00
2013-5-1,88,72,53,41,27,13,57,23,10,0.00,0.00,12,5,27,0.00
2013-5-2,91,67,40,44,39,33,91,46,14,0.00,0.00,8,3,15,0.00
2013-5-3,92,70,40,50,44,38,93,47,20,0.00,0.00,8,2,15,0.00
2013-5-4,90,65,46,51,44,35,93,58,14,0.00,0.00,11,4,20,0.00
2013-5-5,63,58,52,51,49,48,90,72,62,0.00,0.00,8,4,16,0.00
2013-5-6,70,60,45,52,49,43,95,69,49,0.00,0.00,7,2,14,0.00
2013-5-7,73,60,44,52,49,42,96,70,47,0.00,0.00,7,2,13,0.00
2013-5-8,69,56,47,54,50,46,95,81,57,0.00,0.00,6,2,12,0.00
2013-5-9,75,58,43,55,49,42,95,74,48,0.00,0.00,6,2,13,0.00
2013-5-10,80,62,48,58,52,46,94,72,46,0.00,0.00,7,2,14,0.00
2013-5-11,89,64,44,60,52,42,97,69,34,0.00,0.00,6,2,12,0.00
2013-5-12,86,64,41,62,52,39,95,68,42,0.00,0.00,7,2,13,0.00
2013-5-13,90,65,43,58,49,41,96,62,30,0.00,0.00,15,4,24,0.00
2013-5-14,89,71,53,50,46,40,79,46,23,0.00,0.00,14,6,22,0.00
2013-5-15,81,62,42,46,43,39,93,56,28,0.00,0.00,15,6,26,0.00
2013-5-16,75,65,55,51,48,43,69,54,37,0.00,0.00,11,8,22,0.00
2013-5-17,76,61,42,50,43,34,93,55,24,0.00,0.00,10,5,18,0.00
2013-5-18,81,63,40,51,44,38,93,56,26,0.00,0.00,14,7,24,0.00
2013-5-19,88,69,52,48,44,39,73,46,18,0.00,0.00,10,4,16,0.00
2013-5-20,92,72,51,50,46,35,82,46,14,0.00,0.00,8,4,17,0.00
2013-5-21,72,60,46,46,42,35,92,55,34,0.00,0.00,17,10,30,0.00
2013-5-22,69,57,46,39,33,28,64,43,23,0.00,0.00,16,12,29,0.00
2013-5-23,74,59,47,44,39,36,71,50,25,0.00,0.00,13,8,24,0.00
2013-5-24,78,60,40,44,40,36,89,53,23,0.00,0.00,12,5,20,0.00
2013-5-25,78,61,41,47,42,37,89,54,23,0.00,0.00,15,6,26,0.00
2013-5-26,76,64,54,50,46,39,81,55,30,0.00,0.00,14,8,24,0.00
2013-5-27,63,58,48,56,50,43,96,77,64,0.00,0.00,9,4,15,0.00
2013-5-28,73,60,55,57,55,53,96,85,50,0.00,0.00,7,2,13,0.12
2013-5-29,79,69,57,52,49,46,78,51,33,0.00,0.00,14,9,23,0.00
2013-5-30,83,66,50,46,44,40,78,49,24,0.00,0.00,13,7,22,0.00
2013-5-31,92,72,54,53,46,43,67,44,21,0.00,0.00,10,6,18,0.00
2013-6-1,94,75,60,56,47,42,53,38,25,0.00,0.00,14,7,24,0.00
2013-6-2,90,73,57,56,50,45,78,46,30,0.00,0.00,8,4,18,0.00
2013-6-3,72,61,46,54,50,44,93,71,51,0.00,0.00,7,3,17,0.00
2013-6-4,70,56,46,54,50,44,94,80,57,0.00,0.00,6,2,13,0.00
2013-6-5,76,60,52,56,52,49,91,76,50,0.00,0.00,6,2,13,0.00
2013-6-6,84,62,51,60,52,48,92,73,45,0.00,0.00,6,2,14,0.00
2013-6-7,98,70,50,66,56,48,96,67,34,0.00,0.00,4,2,8,0.00
2013-6-8,99,72,54,67,57,51,94,66,35,0.00,0.00,6,3,13,0.00
2013-6-9,70,60,52,56,53,50,93,77,60,0.00,0.00,7,3,17,0.00
2013-6-10,62,58,56,56,54,52,95,87,76,0.00,0.00,6,2,13,0.00
2013-6-11,80,64,48,60,54,42,97,72,40,0.00,0.00,5,2,13,0.17
2013-6-12,83,66,46,47,44,42,87,49,25,0.00,0.00,15,8,26,0.00
2013-6-13,84,68,54,48,43,37,58,43,20,0.00,0.00,14,8,25,0.00
2013-6-14,90,70,53,49,45,38,77,46,18,0.00,0.00,7,4,14,0.00
2013-6-15,84,64,42,57,49,40,94,62,30,0.00,0.00,7,2,12,0.00
2013-6-16,87,67,42,52,47,40,93,55,24,0.00,0.00,11,5,21,0.00
2013-6-17,82,63,45,56,49,43,90,63,38,0.00,0.00,11,5,20,0.00
2013-6-18,75,64,54,51,46,42,80,56,32,0.00,0.00,15,8,26,0.00
2013-6-19,78,64,47,47,45,43,85,52,31,0.00,0.00,14,9,24,0.00
2013-6-20,84,67,48,47,44,39,83,47,22,0.00,0.00,13,7,24,0.00
2013-6-21,89,69,44,49,44,40,91,47,19,0.00,0.00,11,4,20,0.00
2013-6-22,92,74,58,52,46,32,62,41,13,0.00,0.00,15,6,24,0.00
2013-6-23,72,66,59,62,56,52,90,72,60,0.00,0.00,9,4,15,0.00
2013-6-24,63,59,56,57,56,55,96,90,79,0.00,0.00,5,3,11,0.00
2013-6-25,64,62,58,62,60,57,97,95,91,0.00,0.00,6,3,13,0.00
2013-6-26,81,69,61,65,62,60,97,82,54,0.00,0.00,4,2,10,0.42
2013-6-27,94,73,55,70,62,54,98,72,36,0.00,0.00,4,1,9,0.00
2013-6-28,103,82,60,66,58,49,96,54,18,0.00,0.00,12,5,21,0.00
2013-6-29,104,83,57,65,58,53,94,50,20,0.00,0.00,11,4,19,0.00
2013-6-30,100,80,57,67,60,54,94,57,23,0.00,0.00,8,2,14,0.00
2013-7-1,102,78,55,68,61,53,95,62,30,0.00,0.00,6,2,15,0.00
2013-7-2,97,75,60,69,61,56,86,66,38,0.00,0.00,8,2,15,0.00
2013-7-3,92,72,57,68,60,56,95,68,43,0.00,0.00,6,2,12,0.00
2013-7-4,105,82,63,68,57,44,85,48,19,0.00,0.00,16,6,27,0.00
2013-7-5,87,71,56,60,52,44,83,53,35,0.00,0.00,11,4,19,0.00
2013-7-6,82,65,51,60,54,49,93,71,48,0.00,0.00,6,2,13,0.00
2013-7-7,84,64,52,60,53,50,94,73,44,0.00,0.00,6,2,14,0.00
2013-7-8,86,64,51,60,54,49,94,72,37,0.00,0.00,5,2,17,0.00
2013-7-9,93,69,50,59,53,48,97,65,23,0.00,0.00,5,2,12,0.00
2013-7-10,85,65,50,58,52,48,95,68,36,0.00,0.00,6,2,12,0.00
2013-7-11,80,61,51,57,52,48,94,74,44,0.00,0.00,5,2,12,0.00
2013-7-12,83,63,53,60,53,50,91,73,45,0.00,0.00,5,2,11,0.00
2013-7-13,86,64,44,60,52,43,96,68,36,0.00,0.00,5,2,10,0.00
2013-7-14,84,61,47,58,52,44,96,75,41,0.00,0.00,5,2,10,0.00
2013-7-15,74,59,50,56,51,48,95,79,53,0.00,0.00,6,3,13,0.00
2013-7-16,72,59,51,57,53,49,94,80,57,0.00,0.00,5,3,12,0.00
2013-7-17,84,64,46,60,54,44,96,72,42,0.00,0.00,5,2,10,0.00
2013-7-18,88,66,49,61,54,46,97,72,37,0.00,0.00,5,2,10,0.00
2013-7-19,92,66,47,63,54,45,97,70,37,0.00,0.00,5,2,10,0.00
2013-7-20,91,61,46,62,52,44,95,75,38,0.00,0.00,5,2,8,0.00
2013-7-21,86,64,48,60,52,46,95,70,38,0.00,0.00,6,2,17,0.00
2013-7-22,86,65,47,58,52,45,94,68,32,0.00,0.00,7,2,15,0.00
2013-7-23,82,70,57,59,56,54,88,64,40,0.00,0.00,4,2,10,0.00
2013-7-24,89,70,53,62,56,51,94,65,37,0.00,0.00,5,2,11,0.00
2013-7-25,85,66,53,61,55,50,95,70,44,0.00,0.00,5,2,12,0.00
2013-7-26,84,62,52,61,53,50,93,75,45,0.00,0.00,5,2,11,0.00
2013-7-27,81,63,52,60,54,50,94,76,48,0.00,0.00,4,2,11,0.00
2013-7-28,78,60,51,58,52,49,95,78,50,0.00,0.00,5,2,12,0.00
2013-7-29,74,59,52,57,52,50,93,81,56,0.00,0.00,6,2,14,0.00
2013-7-30,78,62,53,60,54,50,93,76,51,0.00,0.00,5,2,11,0.00
2013-7-31,81,65,52,60,53,47,95,68,48,0.00,0.00,5,2,10,0.00
2013-8-1,84,66,42,57,50,40,94,61,33,0.00,0.00,8,3,15,0.00
2013-8-2,87,67,44,56,50,41,94,60,31,0.00,0.00,8,2,16,0.00
2013-8-3,84,62,45,58,51,42,94,72,41,0.00,0.00,6,2,12,0.00
2013-8-4,78,60,50,57,52,47,94,77,47,0.00,0.00,6,2,15,0.00
2013-8-5,79,61,50,57,52,48,94,76,43,0.00,0.00,6,2,11,0.00
2013-8-6,78,60,52,57,52,50,94,78,46,0.00,0.00,6,2,14,0.00
2013-8-7,73,62,53,57,53,51,93,75,56,0.00,0.00,6,2,13,0.00
2013-8-8,78,63,52,59,54,50,93,76,50,0.00,0.00,6,2,14,0.00
2013-8-9,78,61,52,57,53,49,95,78,49,0.00,0.00,6,2,14,0.00
2013-8-10,80,64,54,59,55,51,91,74,45,0.00,0.00,6,2,13,0.00
2013-8-11,84,65,51,61,55,49,94,74,44,0.00,0.00,5,2,14,0.00
2013-8-12,86,64,51,58,53,49,97,73,37,0.00,0.00,5,2,14,0.00
2013-8-13,94,69,46,57,52,44,97,62,26,0.00,0.00,6,2,14,0.00
2013-8-14,95,70,44,59,52,41,94,59,27,0.00,0.00,8,3,15,0.00
2013-8-15,92,72,50,65,59,48,95,68,40,0.00,0.00,7,2,14,0.00
2013-8-16,93,72,53,64,59,52,96,68,34,0.00,0.00,6,2,13,0.00
2013-8-17,90,74,50,61,56,48,95,58,32,0.00,0.00,6,2,13,0.00
2013-8-18,98,78,52,64,59,50,94,58,32,0.00,0.00,6,2,14,0.00
2013-8-19,89,72,58,64,59,55,91,66,39,0.00,0.00,4,1,10,0.00
2013-8-20,85,67,59,60,57,55,89,73,39,0.00,0.00,7,3,15,0.00
2013-8-21,82,65,51,57,55,48,91,72,42,0.00,0.00,5,2,11,0.00
2013-8-22,80,62,51,59,53,47,93,76,48,0.00,0.00,5,2,12,0.00
2013-8-23,85,66,49,60,54,46,92,69,41,0.00,0.00,4,2,11,0.00
2013-8-24,87,69,45,60,54,43,94,62,38,0.00,0.00,10,3,20,0.00
2013-8-25,81,67,54,61,56,52,94,72,42,0.00,0.00,6,2,16,0.00
2013-8-26,87,71,57,58,55,48,93,62,28,0.00,0.00,6,2,14,0.00
2013-8-27,91,69,46,58,51,44,93,60,27,0.00,0.00,8,2,14,0.00
2013-8-28,88,67,49,64,57,46,97,74,42,0.00,0.00,6,2,16,0.00
2013-8-29,89,71,56,64,60,53,96,74,41,0.00,0.00,5,2,12,0.00
2013-8-30,97,75,51,60,56,49,94,58,25,0.00,0.00,8,3,16,0.00
2013-8-31,90,70,49,59,54,47,93,62,29,0.00,0.00,6,2,14,0.00
2013-9-1,87,67,50,60,55,49,95,70,37,0.00,0.00,8,2,14,0.00
2013-9-2,86,68,49,62,57,48,95,70,40,0.00,0.00,7,2,15,0.00
2013-9-3,87,67,46,58,51,44,95,63,24,0.00,0.00,8,3,14,0.00
2013-9-4,88,68,46,59,52,44,94,62,28,0.00,0.00,12,4,23,0.00
2013-9-5,85,68,48,54,51,46,94,60,29,0.00,0.00,13,6,23,0.00
2013-9-6,96,71,49,54,51,46,91,55,19,0.00,0.00,8,2,18,0.00
2013-9-7,96,65,44,53,48,42,92,62,18,0.00,0.00,5,1,10,0.00
2013-9-8,94,64,45,55,50,43,93,65,25,0.00,0.00,4,1,8,0.00
2013-9-9,101,69,48,60,52,46,93,63,23,0.00,0.00,5,1,12,0.00
2013-9-10,76,63,51,60,56,48,93,79,57,0.00,0.00,7,3,17,0.00
2013-9-11,72,65,61,60,59,57,92,81,65,0.00,0.00,4,2,10,0.00
2013-9-12,85,68,54,63,58,51,92,74,47,0.00,0.00,5,1,11,0.00
2013-9-13,88,66,52,60,56,50,95,73,37,0.00,0.00,5,2,10,0.00
2013-9-14,85,62,47,60,53,45,96,76,41,0.00,0.00,4,1,12,0.00
2013-9-15,84,61,44,58,52,42,97,76,41,0.00,0.00,7,2,13,0.00
2013-9-16,88,67,47,59,53,45,96,67,33,0.00,0.00,9,2,14,0.00
2013-9-17,79,66,48,53,50,45,92,60,37,0.00,0.00,14,8,25,0.00
2013-9-18,88,68,52,50,47,39,80,50,18,0.00,0.00,8,3,13,0.00
2013-9-19,91,67,41,49,43,30,91,50,14,0.00,0.00,5,2,16,0.00
2013-9-20,80,58,38,60,48,35,93,72,45,0.00,0.00,8,3,16,0.00
2013-9-21,71,61,51,60,55,49,97,84,50,0.00,0.00,10,3,17,0.00
2013-9-22,75,59,42,53,48,41,97,72,37,0.00,0.00,10,4,17,0.11
2013-9-23,85,68,50,60,53,48,94,63,33,0.00,0.00,9,4,16,0.00
2013-9-24,78,66,53,51,49,47,89,56,34,0.00,0.00,12,8,22,0.00
2013-9-25,72,59,42,47,43,39,94,59,30,0.00,0.00,14,7,24,0.00
2013-9-26,78,62,47,43,40,35,77,48,22,0.00,0.00,10,4,18,0.00
2013-9-27,82,60,44,44,40,30,88,57,15,0.00,0.00,6,2,12,0.00
2013-9-28,72,51,39,50,42,36,92,76,34,0.00,0.00,2,0,4,0.00
2013-9-29,71,62,50,61,57,47,93,84,66,0.00,0.00,6,2,15,0.00
2013-9-30,75,64,52,63,58,45,96,80,52,0.00,0.00,9,3,18,0.00
2013-10-1,78,60,42,49,45,40,95,64,29,0.00,0.00,10,5,18,0.02
2013-10-2,79,62,52,47,44,38,77,53,23,0.00,0.00,14,7,24,0.00
2013-10-3,76,65,53,39,32,21,54,32,13,0.00,0.00,15,8,25,0.00
2013-10-4,83,69,54,30,25,21,40,21,11,0.00,0.00,14,6,28,0.00
2013-10-5,87,55,34,39,32,20,84,50,9,0.00,0.00,4,1,9,0.00
2013-10-6,85,53,33,40,35,30,89,60,17,0.00,0.00,3,1,6,0.00
2013-10-7,86,58,34,44,35,28,90,53,14,0.00,0.00,6,2,12,0.00
2013-10-8,80,59,42,46,42,40,91,59,27,0.00,0.00,11,4,22,0.00
2013-10-9,76,62,46,42,39,34,76,47,22,0.00,0.00,13,7,23,0.00
2013-10-10,77,57,41,45,40,36,89,59,28,0.00,0.00,5,2,12,0.00
2013-10-11,73,54,41,48,44,38,97,74,34,0.00,0.00,5,2,13,0.00
2013-10-12,75,53,36,48,41,33,97,69,31,0.00,0.00,13,3,20,0.00
2013-10-13,78,56,37,46,41,34,93,64,20,0.00,0.00,6,2,12,0.00
2013-10-14,83,53,32,42,37,30,93,63,18,0.00,0.00,8,1,13,0.00
2013-10-15,86,54,32,40,32,22,92,57,10,0.00,0.00,8,2,14,0.00
2013-10-16,84,54,30,38,32,28,91,56,14,0.00,0.00,4,1,10,0.00
2013-10-17,83,47,33,37,33,29,89,67,19,0.00,0.00,2,0,6,0.00
2013-10-18,84,60,32,42,37,29,90,51,20,0.00,0.00,4,1,10,0.00
2013-10-19,87,59,31,44,37,29,92,55,15,0.00,0.00,4,1,8,0.00
2013-10-20,85,55,32,45,39,29,92,63,23,0.00,0.00,4,1,8,0.00
2013-10-21,79,52,36,50,43,33,96,74,32,0.00,0.00,4,1,8,0.00
2013-10-22,84,54,37,50,43,36,97,72,27,0.00,0.00,3,1,8,0.00
2013-10-23,81,52,34,52,43,32,97,76,31,0.00,0.00,4,1,8,0.00
2013-10-24,68,51,38,49,45,36,96,83,49,0.00,0.00,4,1,10,0.00
2013-10-25,75,50,33,50,41,31,97,76,35,0.00,0.00,3,1,7,0.00
2013-10-26,85,52,31,47,38,28,94,67,19,0.00,0.00,3,1,7,0.00
2013-10-27,65,49,33,48,42,31,97,79,53,0.00,0.00,13,3,23,0.00
2013-10-28,68,54,38,42,40,35,90,61,32,0.00,0.00,8,4,14,0.00
2013-10-29,67,50,32,45,41,30,94,73,44,0.00,0.00,5,2,10,0.00
2013-10-30,70,47,31,45,38,29,95,74,39,0.00,0.00,4,1,10,0.00
2013-10-31,77,52,31,45,39,29,93,67,30,0.00,0.00,3,1,7,0.00
2013-11-1,80,51,33,47,39,31,94,69,31,0.00,0.00,4,1,8,0.00
2013-11-2,75,54,35,50,40,32,94,63,26,0.00,0.00,14,5,26,0.00
2013-11-3,63,54,43,38,33,28,74,47,27,0.00,0.00,13,8,26,0.00
2013-11-4,71,53,37,36,32,26,83,50,19,0.00,0.00,12,5,21,0.00
2013-11-5,40,39,38,33,33,33,80,79,77,0.00,0.00,3,2,7,0.00
2013-11-12,76,59,40,47,43,37,89,60,29,0.00,0.00,5,1,12,0.00
2013-11-13,83,55,35,52,43,34,95,71,32,0.00,0.00,5,1,10,0.00
2013-11-14,69,52,39,50,41,32,97,72,40,0.00,0.00,13,3,23,0.00
2013-11-15,70,54,38,39,37,33,84,54,28,0.00,0.00,9,4,18,0.00
2013-11-16,67,52,35,46,40,32,92,67,42,0.00,0.00,15,6,26,0.00
2013-11-17,64,45,30,46,38,28,95,80,49,0.00,0.00,3,1,9,0.00
2013-11-18,60,46,31,48,40,29,97,82,55,0.00,0.00,4,2,10,0.00
2013-11-19,55,53,49,54,52,48,97,96,93,0.00,0.00,4,2,7,0.06
2013-11-20,62,56,48,57,54,47,98,94,76,0.00,0.00,6,1,10,0.49
2013-11-21,66,57,49,50,31,9,96,50,13,0.00,0.00,21,6,41,0.00
2013-11-22,76,67,59,12,7,0,14,10,7,0.00,0.00,17,10,44,0.00
2013-11-23,72,58,31,32,21,8,89,31,10,0.00,0.00,11,4,27,0.00
2013-11-24,66,42,26,38,32,23,93,72,32,0.00,0.00,4,1,9,0.00
2013-11-25,66,43,26,39,33,24,94,74,31,0.00,0.00,4,1,10,0.00
2013-11-26,65,44,30,40,36,28,95,76,36,0.00,0.00,4,1,7,0.00
2013-11-27,68,45,30,43,37,28,96,75,40,0.00,0.00,6,1,11,0.00
2013-11-28,74,48,31,42,37,29,95,72,28,0.00,0.00,6,1,12,0.00
2013-11-29,70,46,29,43,36,28,95,75,34,0.00,0.00,4,1,8,0.00
2013-11-30,72,48,34,43,38,33,95,74,33,0.00,0.00,2,1,6,0.00
2013-12-1,73,48,32,47,39,30,95,75,36,0.00,0.00,4,1,8,0.00
2013-12-2,65,51,33,49,44,32,96,78,50,0.00,0.00,13,4,23,0.00
2013-12-3,57,49,36,47,31,24,91,53,30,0.00,0.00,16,8,28,0.00
2013-12-4,55,37,22,29,24,18,90,65,26,0.00,0.00,4,2,8,0.00
2013-12-5,51,30,15,25,19,12,90,69,26,0.00,0.00,4,1,8,0.00
2013-12-6,46,32,15,40,26,12,96,81,39,0.00,0.00,5,2,9,0.00
2013-12-7,46,36,24,38,27,22,96,74,39,0.00,0.00,14,4,27,0.00
2013-12-8,48,31,21,25,21,18,93,72,32,0.00,0.00,6,2,11,0.00
2013-12-9,53,32,18,26,21,16,90,69,31,0.00,0.00,4,1,8,0.00
2013-12-10,58,32,16,27,22,14,92,71,25,0.00,0.00,2,1,6,0.00
2013-12-11,62,35,19,33,25,17,92,73,28,0.00,0.00,4,1,7,0.00
2013-12-12,53,28,20,33,23,18,93,83,47,0.00,0.00,3,0,6,0.00
2013-12-13,66,42,21,36,29,19,93,67,28,0.00,0.00,4,1,9,0.00
2013-12-14,68,39,23,38,30,21,93,75,33,0.00,0.00,3,1,6,0.00
2013-12-15,66,38,21,39,30,19,94,76,37,0.00,0.00,3,0,7,0.00
2013-12-16,67,42,24,39,32,22,94,73,35,0.00,0.00,5,1,10,0.00
2013-12-17,69,43,25,40,33,23,94,72,32,0.00,0.00,2,1,5,0.00
2013-12-18,62,45,28,44,35,26,95,71,42,0.00,0.00,14,3,25,0.00
2013-12-19,63,51,40,38,30,16,68,49,19,0.00,0.00,14,7,22,0.00
2013-12-20,65,49,35,38,26,18,66,43,17,0.00,0.00,11,5,20,0.00
2013-12-21,68,55,48,44,43,38,83,65,41,0.00,0.00,13,7,22,0.00
2013-12-22,71,50,33,44,40,30,93,71,36,0.00,0.00,8,2,14,0.00
2013-12-23,70,44,27,43,35,25,95,75,36,0.00,0.00,4,1,7,0.00
2013-12-24,74,45,28,45,36,27,95,76,36,0.00,0.00,3,1,6,0.00
2013-12-25,30,28,25,29,26,24,95,94,93,0.00,0.00,2,0,5,0.00
2013-12-26,72,44,22,34,28,19,93,62,21,0.00,0.00,4,1,7,0.00
2013-12-27,60,37,24,36,28,22,93,74,32,0.00,0.00,4,1,9,0.00
2013-12-28,72,41,20,34,26,17,92,63,20,0.00,0.00,5,2,9,0.00
2013-12-29,68,42,23,30,26,20,89,60,20,0.00,0.00,4,1,7,0.00
2013-12-30,66,39,21,34,27,19,92,66,27,0.00,0.00,3,1,6,0.00
2013-12-31,66,41,28,34,30,24,90,69,30,0.00,0.00,4,0,8,0.00
2014-1-1,68,40,22,34,27,19,92,66,24,0.00,0.00,3,1,6,0.00
2014-1-2,68,43,26,38,31,24,91,68,31,0.00,0.00,3,0,6,0.00